Regional Weather Roundup
Issued by NWS

Home | Current Version | Previous Version | Text Only | Print | Product List | Glossary On
Versions: 1 2 3 4 5 6 7 8 9 10 11 12 13 14 15 16 17 18 19 20 21 22 23 24 25 26 27 28 29 30 31 32 33 34 35 36 37 38 39 40 41 42 43 44 45 46 47 48 49 50
000
ASUS44 KJAN 251003
RWRMS

MISSISSIPPI HOURLY WEATHER ROUNDUP
NATIONAL WEATHER SERVICE JACKSON MS
500 AM CDT SAT OCT 25 2014

NOTE: "FAIR: INDICATES FEW OR NO CLOUDS BELOW 12,000 FEET WITH NO
SIGNIFICANT WEATHER AND/OR OBSTRUCTIONS TO VISIBILITY.

MSZ001>002-007>008-010>013-018>021-025>028-034>036-251100-
NORTHWEST MISSISSIPPI

CITY           SKY/WX    TMP DP  RH WIND       PRES   REMARKS
CLARKSDALE     FAIR      55  55 100 CALM      30.11R
CLEVELAND      FAIR      52  52 100 S3        30.10S FOG
GREENWOOD      CLEAR     48  46  93 CALM      30.12S
GREENVILLE     CLEAR     52  50  93 SW3       30.11R
GRENADA          N/A    N/A N/A N/A MISG        N/A
OLIVE BRANCH   CLEAR     52  52 100 CALM      30.10R
OXFORD         FAIR      48  48 100 CALM      30.12R
TUNICA         SUNNY     52  52 100 S3        30.11R FOG
$$

MSZ003>006-009-014>017-022>024-029>033-037>039-251100-
NORTHEAST MISSISSIPPI

CITY           SKY/WX    TMP DP  RH WIND       PRES   REMARKS
COLUMBUS AFB   CLEAR     44  44  97 CALM      30.10S
CORINTH        FAIR      46  45  93 CALM      30.09S
GOLDN TRIANGLE CLEAR    N/A N/A N/A CALM      30.10R
STARKVILLE     FAIR      45  45 100 CALM      30.11R
TUPELO         CLEAR     50  48  93 CALM      30.10S
$$

MSZ040-058-251100-
CENTRAL MISSISSIPPI

CITY           SKY/WX    TMP DP  RH WIND       PRES   REMARKS
JACKSON INTL   CLEAR     47  45  93 CALM      30.12R
JACKSON HAWKNS CLEAR     49  46  90 CALM      30.12R
MERIDIAN KEY   CLEAR     44  42  93 CALM      30.12R
MERIDIAN NAS   CLEAR     48  44  86 CALM      30.11R
RAYMOND        FAIR      45  39  81 MISG      30.12R FOG
VICKSBURG      CLEAR     43  43 100 CALM      30.13R
$$

MSZ059>079-251100-
SOUTH MISSISSIPPI

CITY           SKY/WX    TMP DP  RH WIND       PRES   REMARKS
BROOKHAVEN     FAIR      45  45 100 CALM      30.13S
COLUMBIA         N/A    N/A N/A N/A MISG        N/A
HATTIESBURG    CLEAR     46  45  96 CALM      30.11S
MCCOMB         CLEAR     50  44  80 NW3       30.11S
NATCHEZ        CLEAR     46  43  87 CALM      30.13S
PINE BELT      CLEAR     46  43  87 CALM      30.12R
$$

MSZ080>082-251100-
COASTAL MISSISSIPPI

CITY           SKY/WX    TMP DP  RH WIND       PRES   REMARKS
BILOXI         CLEAR     54  47  78 N5        30.09R
PASCAGOULA     CLEAR     44  42  93 CALM      30.08S
GULFPORT       CLEAR     50  47  89 CALM      30.08S
$$



USA.gov is the U.S. government's official web portal to all federal, state and local government web resources and services.